Regional Weather Roundup
Issued by NWS

Home | Current Version | Previous Version | Graphics & Text | Print | Product List | Glossary On
Versions: 1 2 3 4 5 6 7 8 9 10 11 12 13 14 15 16 17 18 19 20 21 22 23 24 25 26 27 28 29 30 31 32 33 34 35 36 37 38 39 40 41 42 43 44 45 46 47 48 49 50
000
ASUS43 KIND 300559
RWRIN

WEATHER ROUNDUP FOR INDIANA
NATIONAL WEATHER SERVICE INDIANAPOLIS IN
200 AM EDT SAT APR 30 2016

NOTE: "FAIR" INDICATES FEW OR NO CLOUDS BELOW 12,000 FEET WITH NO
SIGNIFICANT WEATHER AND/OR OBSTRUCTIONS TO VISIBILITY.

* - STATION DOES NOT REPORT WEATHER SUCH AS PRECIPITATION OR FOG.

+ - STATION NOT QUALITY CONTROLLED BY THE NATIONAL WEATHER SERVICE.
    USE DATA WITH CAUTION...ESPECIALLY DEWPOINT AND RELATIVE
    HUMIDITY OBSERVATIONS.

INZ001>003-010>013-019-020-300700-
NORTHWEST INDIANA

CITY           SKY/WX    TMP DP  RH WIND       PRES   REMARKS
RENSSELAER +   PTCLDY    45  43  93 NE10      30.05F FOG

$$

LMZ046-743>745-300700-
SOUTHERN LAKE MICHIGAN

STATION/POSITION TIME  TEMP    WIND        PRES    WAVE
                       AIR SEA DIR/SP/G            HT
                 (UTC) (F)     (DEG/KT/KT) (MB)    (FT)
BURNS HARBOR     0500   44      50/  8/ 11 1019.6F
MICHIGAN CITY    0500   45      50/  8/  9   N/A

$$

INZ004-005-014>016-021>024-300700-
NORTH CENTRAL INDIANA

CITY           SKY/WX    TMP DP  RH WIND       PRES   REMARKS
GOSHEN         CLOUDY    47  41  80 SE9       30.12R
6HR MIN TEMP:  47; 6HR MAX TEMP:  52;

SOUTH BEND     CLOUDY    44  41  89 NE3       30.11R
6HR MIN TEMP:  42; 6HR MAX TEMP:  49;


$$

INZ006>009-017-018-025>027-300700-
NORTHEAST INDIANA

CITY           SKY/WX    TMP DP  RH WIND       PRES   REMARKS
ANGOLA *+      CLOUDY    46  34  61 E8        30.12F
FORT WAYNE     MOCLDY    46  42  86 E8        30.12S
6HR MIN TEMP:  46; 6HR MAX TEMP:  53;


$$

INZ028-029-035-036-043>045-051>053-300700-
WEST CENTRAL INDIANA

CITY           SKY/WX    TMP DP  RH WIND       PRES   REMARKS
CRAWFORDSVL +  PTCLDY    50  49  93 E10G16    30.02F
6HR MIN TEMP:  50; 6HR MAX TEMP:  55;

GREENCASTLE +  MOCLDY    54  52  94 E14       30.01F
LAFAYETTE      CLOUDY    49  46  90 E8        30.04F
6HR MIN TEMP:  48; 6HR MAX TEMP:  53;

TERRE HAUTE    CLOUDY    57  49  74 E12       29.98F
6HR MIN TEMP:  56; 6HR MAX TEMP:  63;


$$

INZ030>032-037>040-046>048-054>057-064-065-300700-
CENTRAL INDIANA

CITY           SKY/WX    TMP DP  RH WIND       PRES   REMARKS
INDIANAPOLIS   CLOUDY    53  46  77 E13       30.01F
6HR MIN TEMP:  53; 6HR MAX TEMP:  61;

-EAGLE CREEK   CLOUDY    53  46  77 E10       30.03F
6HR MIN TEMP:  53; 6HR MAX TEMP:  61;

KOKOMO *+      CLOUDY    48  43  81 E9        30.05F
6HR MIN TEMP:  48; 6HR MAX TEMP:  55;

SHELBYVILLE    CLOUDY    54  47  77 E15       30.01F
6HR MIN TEMP:  54; 6HR MAX TEMP:  63;


$$

INZ033-034-041-042-049-050-058-059-300700-
EAST CENTRAL INDIANA

CITY           SKY/WX    TMP DP  RH WIND       PRES   REMARKS
MUNCIE         CLOUDY    51  46  83 E9        30.08F
6HR MIN TEMP:  50; 6HR MAX TEMP:  58;


$$

INZ060-061-067>069-081>083-085>088-300700-
SOUTHWEST INDIANA

CITY           SKY/WX    TMP DP  RH WIND       PRES   REMARKS
EVANSVILLE     CLOUDY    61  54  77 E8        29.93F
6HR MIN TEMP:  60; 6HR MAX TEMP:  64; 6HR PCP:  0.02;

HUNTINGBURG *+ CLOUDY    61  52  72 E7        29.96F
6HR MIN TEMP:  61; 6HR MAX TEMP:  63;


$$

INZ062-063-066-070>080-084-089>092-300700-
SOUTH CENTRAL AND SOUTHEAST INDIANA

CITY           SKY/WX    TMP DP  RH WIND       PRES   REMARKS
BLOOMINGTON    CLOUDY    59  48  67 E10       29.98F
6HR MIN TEMP:  59; 6HR MAX TEMP:  64;

MADISON *+     CLOUDY    59  48  67 NE10G18   30.02F
SEYMOUR +      CLOUDY    61  50  67 E9        30.00F

$$





USA.gov is the U.S. government's official web portal to all federal, state and local government web resources and services.